Weather in Novaya Shulba

Kazakhstan     50˚32′30″N   81˚19′39″E
temp.,
°C
wind,
m/s
gust,
m/s
humid.,
%
clouds,
%
prec.,
mm/h
press.,
hPa
HPBL,
m
3 december, thu
thu300:00−18˚e11940 0.0 104526
03:00−18˚ne11920 0.0 104422
06:00−18˚ene12870 0.0 104428
09:00−17˚e11830 0.0 104229
12:00−13˚e11780 0.0 1041103
15:00−13˚ene12770 0.0 104085
18:00−15˚ne22760 0.0 103922
21:00−15˚e22730 0.0 103824
4 december, fri
fri400:00−15˚e22700 0.0 103729
03:00−15˚e22690 0.0 103628
06:00−14˚e22690 0.0 103632
09:00−14˚e22690 0.0 103534
12:00−11˚ese23710 0.0 103490
15:00−11˚e23690 0.0 103370
18:00−13˚ene22650 0.0 103425
21:00−14˚e12640 0.0 103421
5 december, sat
sat500:00−13˚ene22636 0.0 103530
03:00−12˚ene226491 0.0 103547
06:00−12˚ene236695 0.0 103651
09:00−13˚ene126680 0.0 103725
12:00−10˚ene116658 0.0 1037100
15:00−11˚ne12710 0.0 103772
18:00−14˚nne12730 0.0 103820
21:00−15˚nne11730 0.0 104020
6 december, sun
sun600:00−15˚sw12790 0.0 104031
03:00−16˚se11790 0.0 104120
06:00−17˚nne11910 0.0 104220
09:00−17˚s11900 0.0 104327
12:00−14˚ssw12860 0.0 1043122
15:00−14˚s00866 0.0 104399
18:00−16˚se119329 0.0 104320
21:00−16˚ese118593 0.0 104328
7 december, mon
mon700:00−16˚ese118291 0.0 104220
03:00−17˚ese117870 0.0 104125
06:00−16˚ese127784 0.0 104043
09:00−16˚se1278100 0.0 103952
12:00−13˚se227470 0.0 1037110
15:00−13˚ese127415 0.0 103676
18:00−15˚e12738 0.0 103522
21:00−15˚ese22700 0.0 103425